Location: Soapstone Prairie Natural Area
(40.9437°N, 105.0829°W)
Time: 14:55:55
(UTC-06:00)

ISS - Visible Passes

Search period start: 26 March 2017 00:00
Search period end: 05 April 2017 00:00
Orbit: 399 x 409 km, 51.6° (Epoch: 27 March)

Date Brightness Start Highest point End Pass type
(mag) Time Alt. Az. Time Alt. Az. Time Alt. Az.
26 Mar -3.1 20:48:45 10° SSW 20:51:09 36° S 20:51:09 36° S visible
27 Mar -2.5 19:57:01 10° S 19:59:36 22° SE 20:02:03 11° E visible
27 Mar -1.9 21:32:47 10° WSW 21:34:46 29° WNW 21:34:46 29° WNW visible
28 Mar -3.8 20:40:13 10° WSW 20:43:28 76° NNW 20:45:23 23° NE visible
28 Mar -0.2 22:18:02 10° WNW 22:18:05 10° WNW 22:18:05 10° WNW visible
29 Mar -3.7 19:47:55 10° SW 19:51:05 54° SE 19:54:17 10° ENE visible
29 Mar -1.7 21:25:01 10° W 21:27:45 24° NNW 21:28:25 22° N visible
30 Mar -2.3 20:32:08 10° W 20:35:10 35° NNW 20:38:14 10° NE visible
30 Mar -0.5 22:10:32 10° NW 22:11:14 12° NNW 22:11:14 12° NNW visible
31 Mar -1.2 21:17:27 10° WNW 21:19:38 17° NNW 21:21:12 13° NNE visible
01 Apr -1.5 20:24:22 10° WNW 20:26:57 21° NNW 20:29:34 10° NNE visible
01 Apr -0.7 22:02:47 10° NNW 22:03:41 12° NNW 22:03:41 12° NNW visible
02 Apr -1.0 21:09:52 10° NW 21:11:35 13° N 21:13:17 10° NNE visible
03 Apr -1.1 20:16:45 10° NW 20:18:49 15° NNW 20:20:52 10° NNE visible
03 Apr -0.9 21:54:31 10° NNW 21:55:43 13° N 21:55:43 13° N visible
04 Apr -1.1 21:01:55 10° NNW 21:03:30 13° N 21:05:04 10° NNE visible
